When you browse on this site, cookies collect data to enhance your experience and personalize the content and advertising you see.
Visit our Privacy Policy to learn more. By continuing to use the site, you agree to this use of cookies and data.
  • In Czech Republic
  • List of Countries
  • For 7 days
  • Water Temperature
  • Satellite Maps
  • Weather Map
  • Weather Widgets
  • user-avatar
    Login

    Hourly Weather Laszkar Gah

    Today, 23 March, Saturday

    Time Temperature Precipitation Wind Pressure Humidity
    00:00 +21°C° 0 mm 3 mps 694 mmHg 44%
    01:00 +20°C° 0 mm 3 mps 694 mmHg 48%
    02:00 +19°C° 0 mm 3 mps 694 mmHg 50%
    03:00 +19°C° 0 mm 2 mps 694 mmHg 52%
    04:00 +18°C° 0 mm 2 mps 694 mmHg 51%
    05:00 +19°C° 0.1 mm 2 mps 694 mmHg 48%
    06:00 +19°C° 0.1 mm 2 mps 695 mmHg 46%
    07:00 +20°C° 0.1 mm 1 mps 695 mmHg 44%
    08:00 +21°C° 0 mm 1 mps 696 mmHg 39%
    09:00 +22°C° 0 mm 1 mps 696 mmHg 33%
    10:00 +23°C° 0 mm 1 mps 697 mmHg 23%
    11:00 +24°C° 0 mm 2 mps 696 mmHg 23%
    12:00 +25°C° 0 mm 2 mps 696 mmHg 22%
    13:00 +26°C° 0 mm 3 mps 696 mmHg 22%
    14:00 +26°C° 0 mm 3 mps 696 mmHg 22%
    15:00 +26°C° 0 mm 3 mps 695 mmHg 22%
    16:00 +25°C° 0 mm 4 mps 695 mmHg 22%
    17:00 +25°C° 0 mm 3 mps 695 mmHg 24%
    18:00 +24°C° 0 mm 3 mps 695 mmHg 26%
    19:00 +24°C° 0 mm 2 mps 695 mmHg 28%
    20:00 +23°C° 0 mm 2 mps 695 mmHg 29%
    21:00 +23°C° 0 mm 2 mps 695 mmHg 30%
    22:00 +21°C° 0 mm 3 mps 695 mmHg 32%
    23:00 +21°C° 0 mm 2 mps 695 mmHg 32%

    Tomorrow, 24 March, Sunday

    Time Temperature Precipitation Wind Pressure Humidity
    00:00 +21°C° 0 mm 2 mps 694 mmHg 32%
    01:00 +21°C° 0 mm 1 mps 694 mmHg 33%
    02:00 +20°C° 0 mm 2 mps 694 mmHg 33%
    03:00 +20°C° 0 mm 2 mps 694 mmHg 33%
    04:00 +20°C° 0 mm 2 mps 694 mmHg 34%
    05:00 +20°C° 0 mm 2 mps 694 mmHg 34%
    06:00 +19°C° 0 mm 3 mps 694 mmHg 35%
    07:00 +19°C° 0 mm 3 mps 695 mmHg 36%
    08:00 +21°C° 0 mm 4 mps 695 mmHg 32%
    09:00 +22°C° 0 mm 4 mps 695 mmHg 29%
    10:00 +25°C° 0 mm 4 mps 696 mmHg 26%
    11:00 +25°C° 0 mm 3 mps 695 mmHg 26%
    12:00 +26°C° 0 mm 3 mps 695 mmHg 25%
    13:00 +27°C° 0 mm 2 mps 694 mmHg 24%
    14:00 +27°C° 0 mm 2 mps 694 mmHg 24%
    15:00 +27°C° 0 mm 2 mps 694 mmHg 23%
    16:00 +27°C° 0 mm 2 mps 693 mmHg 22%
    17:00 +26°C° 0.2 mm 2 mps 693 mmHg 25%
    18:00 +26°C° 0.2 mm 2 mps 693 mmHg 28%
    19:00 +25°C° 0.2 mm 2 mps 693 mmHg 30%
    20:00 +24°C° 1.6 mm 3 mps 693 mmHg 36%
    21:00 +22°C° 1.6 mm 3 mps 693 mmHg 41%
    22:00 +21°C° 1.6 mm 4 mps 693 mmHg 46%
    23:00 +20°C° 0.2 mm 4 mps 693 mmHg 48%

    Day after tomorrow, 25 March, Monday

    Time Temperature Precipitation Wind Pressure Humidity
    00:00 +20°C° 0.2 mm 4 mps 693 mmHg 49%
    01:00 +20°C° 0.2 mm 4 mps 693 mmHg 51%
    02:00 +20°C° 0.2 mm 3 mps 693 mmHg 52%
    03:00 +20°C° 0.2 mm 3 mps 693 mmHg 53%
    04:00 +19°C° 0.2 mm 3 mps 693 mmHg 55%
    05:00 +19°C° 0 mm 3 mps 694 mmHg 53%
    06:00 +19°C° 0 mm 3 mps 694 mmHg 51%
    07:00 +20°C° 0 mm 4 mps 694 mmHg 49%
    08:00 +21°C° 0 mm 4 mps 695 mmHg 45%
    09:00 +23°C° 0 mm 4 mps 696 mmHg 40%
    10:00 +25°C° 0 mm 4 mps 697 mmHg 36%
    11:00 +26°C° 0 mm 3 mps 696 mmHg 33%
    12:00 +27°C° 0 mm 3 mps 696 mmHg 31%
    13:00 +28°C° 0 mm 3 mps 696 mmHg 29%
    14:00 +28°C° 0 mm 2 mps 695 mmHg 27%
    15:00 +28°C° 0 mm 2 mps 695 mmHg 26%
    16:00 +28°C° 0 mm 1 mps 695 mmHg 25%
    17:00 +28°C° 0 mm 1 mps 694 mmHg 28%
    18:00 +27°C° 0 mm 1 mps 694 mmHg 31%
    19:00 +26°C° 0 mm 1 mps 694 mmHg 34%
    20:00 +26°C° 0 mm 2 mps 694 mmHg 34%
    21:00 +25°C° 0 mm 3 mps 695 mmHg 34%
    22:00 +25°C° 0 mm 4 mps 695 mmHg 34%
    23:00 +23°C° 0 mm 4 mps 695 mmHg 35%

    26 March, Tuesday

    Time Temperature Precipitation Wind Pressure Humidity
    00:00 +23°C° 0 mm 4 mps 694 mmHg 36%
    01:00 +22°C° 0 mm 4 mps 694 mmHg 37%
    02:00 +22°C° 0 mm 4 mps 694 mmHg 38%
    03:00 +21°C° 0 mm 4 mps 694 mmHg 39%
    04:00 +21°C° 0 mm 4 mps 694 mmHg 40%
    05:00 +21°C° 0 mm 4 mps 694 mmHg 39%
    06:00 +21°C° 0 mm 4 mps 695 mmHg 39%
    07:00 +21°C° 0 mm 4 mps 695 mmHg 38%
    08:00 +23°C° 0 mm 4 mps 696 mmHg 34%
    09:00 +26°C° 0 mm 4 mps 696 mmHg 30%
    10:00 +27°C° 0 mm 4 mps 697 mmHg 26%
    11:00 +28°C° 0 mm 4 mps 697 mmHg 26%
    12:00 +28°C° 0 mm 5 mps 697 mmHg 26%
    13:00 +29°C° 0 mm 5 mps 697 mmHg 27%
    14:00 +28°C° 0.1 mm 3 mps 696 mmHg 31%
    15:00 +27°C° 0.1 mm 2 mps 696 mmHg 35%
    16:00 +24°C° 0.1 mm 0 mps 695 mmHg 39%
    17:00 +26°C° 0 mm 1 mps 695 mmHg 41%
    18:00 +25°C° 0 mm 1 mps 696 mmHg 43%
    19:00 +25°C° 0 mm 2 mps 696 mmHg 44%
    20:00 +25°C° 0 mm 2 mps 696 mmHg 45%
    21:00 +25°C° 0 mm 3 mps 696 mmHg 45%
    22:00 +24°C° 0 mm 3 mps 697 mmHg 46%
    23:00 +23°C° 0.2 mm 4 mps 696 mmHg 48%

    27 March, Wednesday

    Time Temperature Precipitation Wind Pressure Humidity
    00:00 +22°C° 0.2 mm 4 mps 696 mmHg 49%
    01:00 +22°C° 0.2 mm 5 mps 695 mmHg 51%
    02:00 +22°C° 0.1 mm 5 mps 695 mmHg 52%
    03:00 +22°C° 0.1 mm 5 mps 695 mmHg 52%
    04:00 +21°C° 0.1 mm 5 mps 694 mmHg 52%
    05:00 +22°C° 0 mm 5 mps 695 mmHg 52%
    06:00 +22°C° 0 mm 5 mps 695 mmHg 51%
    07:00 +22°C° 0 mm 5 mps 695 mmHg 51%
    08:00 +23°C° 0 mm 4 mps 695 mmHg 46%
    09:00 +26°C° 0 mm 3 mps 696 mmHg 42%
    10:00 +27°C° 0 mm 2 mps 696 mmHg 37%
    11:00 +28°C° 0 mm 2 mps 696 mmHg 34%
    12:00 +28°C° 0 mm 2 mps 695 mmHg 31%
    13:00 +29°C° 0 mm 2 mps 695 mmHg 28%
    14:00 +30°C° 0 mm 3 mps 695 mmHg 27%
    15:00 +30°C° 0 mm 4 mps 695 mmHg 25%
    16:00 +32°C° 0 mm 5 mps 695 mmHg 23%
    17:00 +30°C° 0 mm 5 mps 695 mmHg 25%
    18:00 +29°C° 0 mm 6 mps 695 mmHg 26%
    19:00 +28°C° 0 mm 6 mps 695 mmHg 28%
    20:00 +27°C° 0 mm 6 mps 695 mmHg 31%
    21:00 +26°C° 0 mm 5 mps 696 mmHg 34%
    22:00 +25°C° 0 mm 5 mps 696 mmHg 37%
    23:00 +25°C° 0 mm 4 mps 695 mmHg 41%

    28 March, Thursday

    Time Temperature Precipitation Wind Pressure Humidity
    00:00 +24°C° 0 mm 3 mps 695 mmHg 45%
    01:00 +23°C° 0 mm 2 mps 694 mmHg 49%
    02:00 +23°C° 0 mm 2 mps 694 mmHg 51%
    03:00 +21°C° 0 mm 2 mps 694 mmHg 53%
    04:00 +21°C° 0 mm 2 mps 694 mmHg 54%
    05:00 +21°C° 0 mm 2 mps 694 mmHg 53%
    06:00 +21°C° 0 mm 3 mps 695 mmHg 52%
    07:00 +22°C° 0 mm 3 mps 695 mmHg 51%
    08:00 +24°C° 0 mm 3 mps 696 mmHg 45%
    09:00 +26°C° 0 mm 3 mps 696 mmHg 39%
    10:00 +28°C° 0 mm 3 mps 696 mmHg 33%
    11:00 +29°C° 0 mm 3 mps 696 mmHg 30%
    12:00 +30°C° 0 mm 3 mps 695 mmHg 26%
    13:00 +31°C° 0 mm 3 mps 694 mmHg 23%
    14:00 +32°C° 0 mm 4 mps 694 mmHg 22%
    15:00 +32°C° 0 mm 4 mps 693 mmHg 20%
    16:00 +33°C° 0 mm 5 mps 693 mmHg 19%
    17:00 +30°C° 0 mm 4 mps 693 mmHg 21%
    18:00 +29°C° 0 mm 3 mps 693 mmHg 24%
    19:00 +28°C° 0 mm 2 mps 693 mmHg 26%
    20:00 +27°C° 0 mm 2 mps 693 mmHg 28%
    21:00 +26°C° 0 mm 2 mps 692 mmHg 31%
    22:00 +26°C° 0 mm 1 mps 692 mmHg 33%
    23:00 +25°C° 0.1 mm 1 mps 692 mmHg 35%
    Show more